{"data":{"norad_id":51060,"intl_designator":"2022-002CE","name":"ETV-A1","alt_names":[],"object_type":"PAYLOAD","status":"ACTIVE","operator":null,"country":"UK","launch_date":"2022-01-13","launch_site_code":"AFETR","launch_vehicle":null,"mission":null,"orbit_class":"UNKNOWN","rcs_meters":null,"size_class":null,"mass_kg":null,"dimensions":null,"purposes":[],"wikipedia_slug":null,"has_3d_model":false,"image_url":null,"decayed_at":null,"tle_current":{"epoch":"2026-05-25T03:33:04.843008Z","epoch_age_seconds":56246,"freshness":"FRESH","line1":"1 51060U 22002CE  26145.14797272  .00011122  00000+0  27938-3 0  9993","line2":"2 51060  97.2890 211.5273 0006669  77.0295 283.1696 15.40130017242293","mean_motion":15.40130017,"eccentricity":0.0006669,"inclination_deg":97.289,"raan_deg":211.5273,"arg_perigee_deg":77.0295,"mean_anomaly_deg":283.1696,"bstar":0.00027938,"rev_number":24229,"period_min":93.498599735427,"perigee_km":441.17441255333,"apogee_km":450.27608001742,"semimajor_km":6823.8622462854,"source":"CELESTRAK","updated_at":"2026-05-25T13:37:57.379112Z"}}}